DateTimeUTC,F1_A11,F1_S11,BsB_S11,BsG_S11,BsR_S11,BbsB_S11,BbsG_S11,BbsR_S11,BaB_A11,BaG_A11,BaR_A11,Tu_S11,T_S11,Uu_S11,U_S11,P_S11,T1_A11
2021-12-03T13:00:00Z,00000200,21000000,,,,,,,-000.03,-000.11,-000.25,18.9,25.9,,00.0,0628.0,31.0
2021-12-03T13:01:00Z,00000200,21000000,,,,,,,-000.47,-000.02,0000.06,18.9,25.9,,00.0,0628.0,31.0
2021-12-03T13:02:00Z,00000200,21000000,,,,,,,0000.01,-000.36,0000.21,18.8,25.9,,00.0,0628.0,31.0
2021-12-03T13:03:00Z,00000200,61000000,,,,,,,0000.01,-000.27,-000.36,18.8,25.9,,00.0,0628.0,31.0
2021-12-03T13:04:00Z,00000200,41000000,-000.29,0000.28,0000.29,0000.15,-000.07,0000.28,0000.12,0000.30,0000.25,18.9,25.7,,00.0,0628.9,31.0
2021-12-03T13:05:00Z,00000200,01000000,-000.18,0000.15,0000.19,0000.54,0000.23,-000.08,-000.01,0000.05,0000.05,19.0,25.7,,00.0,0628.9,31.0
2021-12-03T13:06:00Z,00000200,01000000,-000.61,0000.22,-000.09,0000.83,0000.07,0000.41,-000.20,-000.21,-000.14,19.1,25.7,,00.0,0629.0,31.0
2021-12-03T13:07:00Z,00000200,01000000,0000.17,0000.41,0000.23,-000.19,-000.14,-000.06,0000.26,0000.21,-000.19,19.1,25.7,,00.0,0629.0,31.0
2021-12-03T13:08:00Z,00000200,01000000,-000.23,0000.12,0000.12,0000.22,0000.06,0000.10,-000.32,-000.37,0000.13,19.2,25.7,,00.0,0629.0,31.0
2021-12-03T13:09:00Z,00000200,01000000,0000.63,-000.29,0000.32,0000.41,-000.06,0000.05,0000.01,0000.51,-000.19,19.2,25.8,,00.0,0629.0,31.0
2021-12-03T13:10:00Z,00000200,01000000,0000.05,0000.10,-000.12,-000.18,-000.10,-000.22,0000.16,-000.26,0000.15,19.2,25.8,,00.0,0629.0,31.0
2021-12-03T13:11:00Z,00000200,01000000,0000.45,0000.32,0000.08,0000.08,0000.17,0000.46,-000.02,0000.07,0000.25,19.2,25.8,,00.0,0629.0,31.0
2021-12-03T13:12:00Z,00000200,01000000,-000.08,0000.18,-000.09,0000.22,0000.23,-000.40,-000.29,-000.48,-000.20,19.1,25.7,,00.0,0629.0,31.0
2021-12-03T13:13:00Z,00000200,01000000,0001.00,0000.07,0000.20,-000.00,0000.05,-000.08,-000.25,0000.07,-000.45,19.1,25.7,,00.0,0629.0,31.0
2021-12-03T13:14:00Z,00000200,01000000,0000.67,0000.15,-000.10,-000.16,-000.11,-000.06,-000.10,-000.06,0000.16,19.0,25.6,,00.0,0629.0,31.0
2021-12-03T13:15:00Z,00000200,01000000,-000.44,0000.22,-000.11,0000.46,-000.13,0000.15,0000.16,-000.40,-000.03,18.9,25.6,,00.0,0629.0,31.0
2021-12-03T13:16:00Z,00000200,01000000,-000.08,0000.20,-000.19,0000.10,0000.01,-000.04,0000.12,0000.28,-000.31,18.9,25.6,,00.0,0629.0,31.0
2021-12-03T13:17:00Z,00000200,01000000,-000.10,0000.20,0000.34,0000.32,0000.17,0000.14,0000.09,0000.22,0000.41,18.9,25.5,,00.0,0629.0,31.0
2021-12-03T13:18:00Z,00000200,01000000,-000.26,0000.07,0000.24,0000.26,0000.33,0000.25,0000.08,0000.26,0000.28,18.9,25.5,,00.0,0629.0,31.0
2021-12-03T13:19:00Z,00000200,01000000,0000.03,0000.27,0000.26,-000.04,0000.32,0000.51,-000.07,-000.08,-000.22,18.9,25.5,,00.0,0629.0,31.0
2021-12-03T13:20:00Z,00000200,01000000,-000.24,0000.11,0000.36,0000.41,0000.32,0000.00,0000.23,-000.02,0000.31,18.9,25.5,,00.0,0629.0,31.0
2021-12-03T13:21:00Z,00000200,01000000,-000.24,0000.04,-000.09,-000.28,-000.08,0000.10,-000.10,0000.07,0000.13,18.9,25.6,,00.0,0629.0,31.0
2021-12-03T13:22:00Z,00000200,01000000,0000.30,0000.02,0000.13,0000.52,-000.11,0000.13,0000.09,0000.22,-000.04,19.0,25.6,,00.0,0629.0,31.0
2021-12-03T13:23:00Z,00000200,01000000,-000.00,-000.01,-000.15,0000.17,0000.08,0000.07,0000.03,0000.22,0000.05,19.0,25.6,,00.0,0629.0,31.0
2021-12-03T13:24:00Z,00000200,01000000,0000.48,0000.23,-000.19,0000.40,0000.08,0000.21,-000.11,-000.30,0000.14,19.1,25.6,,00.0,0629.1,31.0
2021-12-03T13:25:00Z,00000200,01000000,-000.05,0000.23,-000.42,-000.14,0000.33,0000.22,0000.27,0000.10,-000.12,19.2,25.7,,00.0,0629.1,31.0
2021-12-03T13:26:00Z,00000200,01000000,0000.06,0000.28,0000.22,0000.10,0000.03,0000.10,-000.17,-000.11,-000.07,19.2,25.7,,00.0,0629.1,31.0
2021-12-03T13:27:00Z,00000200,01000000,-000.29,0000.27,0000.13,-000.01,0000.32,0000.27,0000.11,0000.32,0000.15,19.1,25.7,,00.0,0629.1,31.0
2021-12-03T13:28:00Z,00000200,01000000,0000.84,0000.24,-000.06,0000.12,0000.37,0000.29,0000.24,-000.22,0000.04,19.1,25.7,,00.0,0629.1,31.0
2021-12-03T13:29:00Z,00000200,01000000,0000.38,0000.08,0000.38,0000.22,0000.08,-000.03,-000.04,-000.11,-000.12,19.1,25.7,,00.0,0629.1,31.0
2021-12-03T13:30:00Z,00000200,01000000,-000.79,0000.00,-000.00,0000.43,-000.19,0000.07,-000.31,-000.17,-000.29,19.0,25.6,,00.0,0629.1,31.0
2021-12-03T13:31:00Z,00000200,01000000,-000.67,-000.02,-000.01,0000.23,0000.13,0000.08,-000.10,0000.04,0000.22,18.9,25.6,,00.0,0629.1,30.9
2021-12-03T13:32:00Z,00000200,01000000,0000.45,-000.32,0000.24,0000.18,0000.24,0000.29,0000.21,0000.22,0000.14,18.9,25.5,,00.0,0629.1,30.9
2021-12-03T13:33:00Z,00000200,01000000,-000.40,-000.18,0000.10,-000.32,-000.15,-000.21,0000.36,-000.25,-000.08,18.9,25.5,,00.0,0629.2,31.0
2021-12-03T13:34:00Z,00000200,01000000,0000.13,-000.26,-000.24,0000.30,-000.10,0000.14,-000.12,0000.39,0000.04,19.0,25.5,,00.0,0629.1,30.9
2021-12-03T13:35:00Z,00000200,01000000,-000.29,-000.13,0000.01,0000.38,-000.00,-000.18,-000.22,-000.08,0000.20,19.1,25.5,,00.0,0629.2,31.0
2021-12-03T13:36:00Z,00000200,01000000,0000.13,0000.05,-000.10,-000.29,-000.19,0000.07,0000.23,0000.46,0000.11,19.2,25.6,,00.0,0629.2,31.0
2021-12-03T13:37:00Z,00000200,01000000,0000.90,-000.06,-000.12,0000.15,0000.24,0000.09,0000.15,-000.27,0000.24,19.3,25.6,,00.0,0629.2,31.0
2021-12-03T13:38:00Z,00000200,01000000,0000.37,0000.22,0000.07,-000.04,-000.02,0000.06,-000.01,0000.33,-000.35,19.3,25.6,,00.0,0629.2,31.0
2021-12-03T13:39:00Z,00000200,01000000,-000.39,0000.39,0000.01,-000.08,0000.11,0000.16,-000.04,-000.35,0000.35,19.4,25.7,,00.0,0629.3,31.0
2021-12-03T13:40:00Z,00000200,01000000,0000.28,0000.16,-000.15,0000.41,0000.04,-000.07,0000.17,0000.37,-000.14,19.5,25.7,,00.0,0629.3,31.0
2021-12-03T13:41:00Z,00000200,01000000,-000.59,0000.31,0000.08,0000.07,0000.16,-000.14,-000.09,-000.50,-000.17,19.6,25.7,,00.0,0629.3,31.0
2021-12-03T13:42:00Z,00000200,01000000,0000.01,0000.12,0000.22,-000.05,-000.02,0000.05,-000.31,-000.01,-000.09,19.6,25.8,,00.0,0629.3,31.0
2021-12-03T13:43:00Z,00000200,01000000,0000.56,0000.08,0000.11,0000.33,0000.17,0000.05,0000.34,0000.34,0000.38,19.6,25.8,,00.0,0629.3,31.0
2021-12-03T13:44:00Z,00000200,01000000,0000.03,0000.20,0000.04,0000.25,0000.03,0000.36,-000.19,-000.20,-000.32,19.6,25.8,,00.0,0629.3,31.0
2021-12-03T13:45:00Z,00000200,01000000,-000.00,-000.19,0000.15,-000.12,-000.02,0000.14,-000.30,-000.52,-000.19,19.5,25.8,,00.0,0629.4,30.9
2021-12-03T13:46:00Z,00000200,01000000,0000.23,-000.07,-000.19,0000.09,0000.20,0000.04,0000.06,0000.32,0000.00,19.5,25.7,,00.0,0629.4,30.9
2021-12-03T13:47:00Z,00000200,01000000,-000.22,0000.16,0000.02,0000.35,0000.07,0000.23,0000.12,0000.06,0000.27,19.4,25.7,,00.0,0629.4,30.9
2021-12-03T13:48:00Z,00000200,01000000,0000.17,-000.10,-000.20,0000.49,-000.25,-000.32,0000.26,0000.37,0000.12,19.4,25.7,,00.0,0629.4,30.9
2021-12-03T13:49:00Z,00000200,01000000,-000.20,-000.24,0000.15,0000.81,0000.07,0000.57,-000.21,-000.27,0000.03,19.5,25.7,,00.0,0629.4,31.0
2021-12-03T13:50:00Z,00000200,01000000,0000.33,-000.15,0000.23,0000.44,0000.25,0000.17,0000.26,-000.05,-000.05,19.6,25.8,,00.0,0629.4,31.0
2021-12-03T13:51:00Z,00000200,01000000,0000.32,-000.21,-000.10,0000.02,0000.03,-000.39,-000.11,0000.20,0000.05,19.6,25.8,,00.0,0629.4,31.0
2021-12-03T13:52:00Z,00000200,01000000,0000.43,-000.14,0000.11,0000.32,0000.16,0000.13,0000.05,0000.12,0000.07,19.7,25.8,,00.0,0629.4,31.0
2021-12-03T13:53:00Z,00000200,01000000,0000.48,0000.40,-000.02,-000.24,-000.06,-000.08,-000.11,-000.05,-000.08,19.7,25.8,,00.0,0629.4,31.0
2021-12-03T13:54:00Z,00000200,01000000,0000.39,-000.27,-000.04,0000.03,0000.14,-000.05,0000.01,0000.08,0000.26,19.8,25.9,,00.0,0629.4,31.0
2021-12-03T13:55:00Z,00000200,01000000,0000.26,-000.05,0000.33,0000.17,0000.15,0000.12,0000.20,-000.29,-000.01,19.9,25.9,,00.0,0629.4,31.1
2021-12-03T13:56:00Z,00000200,01000000,-000.04,-000.04,-000.23,0000.16,0000.08,-000.06,-000.15,0000.04,-000.18,19.9,25.9,,00.0,0629.4,31.0
2021-12-03T13:57:00Z,00000200,41000000,,,,,,,0000.69,0000.54,0000.47,20.0,26.0,,00.0,0629.4,31.1
2021-12-03T13:58:00Z,00000200,61000000,,,,,,,-000.23,0000.17,-000.20,19.7,26.1,,00.0,0628.6,31.1
2021-12-03T13:59:00Z,00000200,21000000,,,,,,,-000.42,-000.52,-000.25,19.7,26.2,,00.0,0628.6,31.1
